[[{"header":{"parameterUnit":"m.s-1","parameterCategory":1,"la1":30.2991,"la2":30.254,"lo1":-89.0895,"lo2":-89.0444,"dy":0.0017,"dx":0.0017,"nx":28,"ny":28,"refTime":"2025-12-29T09:00:00:Z","depth":0,"parameterNumber":2,"parameterNumberName":"U-component_of_WINDS"},"data":[0,0,0,0,0,0,0,0,0,0,0,0,0,0,0,0,0,0,0,0,0,0,0,0,0,0,0,0,0,0,0,0,0,0,0,0,0,0,0,0,0,0,0,0,0,0,0,0,0,0,0,0,0,0,0,0,0,0,1.7658,1.7658,0,1.7656,1.7656,1.7656,1.7632,1.7632,1.7631,1.7631,1.7628,1.7628,1.7629,0,0,0,0,0,0,0,0,0,0,0,0,0,1.7641,1.7641,1.7658,1.7658,1.7657,1.7656,1.7656,1.7656,1.7632,1.7632,1.7631,1.763,1.7628,1.7628,1.7629,0,0,0,0,0,0,0,0,0,0,0,0,0,1.7645,1.7642,1.7658,1.7646,1.7645,1.7656,1.7656,1.7656,1.7633,1.7632,1.7631,1.763,1.7627,1.7628,1.7629,1.7651,0,0,1.7631,1.7631,0,0,0,0,0,0,0,0,1.7644,1.7645,1.7647,1.7647,1.7645,1.7643,1.7649,1.7654,1.7633,1.7637,1.7631,1.763,1.7634,1.7634,1.7635,1.7651,1.765,1.7631,1.7631,1.7632,1.7632,0,0,0,0,0,0,0,1.7644,1.7645,1.7657,1.7648,1.7646,1.7641,1.764,1.765,1.764,1.7637,1.7635,1.7635,1.7633,1.7635,1.7635,1.765,1.7631,1.7632,1.7632,1.7632,1.7685,1.7686,0,0,0,0,0,0,1.7646,1.7645,1.7657,1.7657,1.7643,1.7642,1.7641,1.7645,1.764,1.7639,1.7636,1.7634,1.7634,1.7634,1.7635,1.7661,1.7632,1.7632,1.7633,1.7684,1.7686,1.7687,0,0,0,0,0,0,1.7645,1.7647,1.7657,1.7651,1.7651,1.7643,1.7647,1.7645,1.7647,1.764,1.7638,1.764,1.7633,1.7634,1.7647,1.7661,1.7633,1.7633,1.7683,1.7685,1.7686,1.7714,0,0,0,0,0,0,1.7645,1.7647,1.7655,1.7651,1.7652,1.767,1.7648,1.7646,1.7649,1.7646,1.7642,1.7641,1.7633,1.7646,1.7648,1.7661,1.7634,1.7682,1.7684,1.7686,1.7712,1.7716,1.772,0,0,0,0,0,1.7645,1.7662,1.7656,1.7657,1.7662,1.767,1.7671,1.7661,1.765,1.7658,1.7653,1.7641,1.7659,1.7648,1.765,1.7663,1.7681,1.7683,1.7686,1.771,1.7715,1.772,0,0,0,0,0,0,1.7667,1.7661,1.7654,1.7671,1.7671,1.7666,1.7676,1.7667,1.767,1.7668,1.7655,1.7655,1.767,1.7668,1.7656,1.7685,1.7668,1.7671,1.7686,1.7691,1.7695,1.7695,1.7634,0,0,0,0,0,1.7675,1.7682,1.7676,1.7692,1.7693,1.7685,1.7688,1.7681,1.768,1.768,1.7677,1.7677,1.7683,1.7687,1.7691,1.7711,1.7711,1.7722,1.7726,1.7729,1.7731,1.7743,1.7748,1.7694,1.7694,1.7694,0,0,1.7689,1.7687,1.7692,1.7697,1.7696,1.7704,1.7685,1.7694,1.77,1.7682,1.7695,1.7692,1.7692,1.7709,1.7716,1.7707,1.7746,1.7732,1.7735,1.7735,1.7746,1.7751,1.7755,1.7696,1.7695,1.7695,0,0,1.772,1.7719,1.7732,1.7733,1.7733,1.7727,1.7731,1.7728,1.7725,1.7738,1.7725,1.7732,1.7742,1.7743,1.7744,1.7778,1.7767,1.778,1.7801,1.7812,1.7816,1.782,1.7833,1.7837,1.7782,1.7782,1.7782,0,1.7738,1.775,1.774,1.7751,1.7754,1.7738,1.7752,1.7753,1.7754,1.7757,1.7747,1.776,1.7759,1.7776,1.7785,1.7786,1.779,1.778,1.7817,1.782,1.7824,1.7836,1.784,1.7784,1.7784,1.7783,1.7783,0,1.7773,1.7781,1.7792,1.7795,1.7799,1.7811,1.7804,1.7809,1.7802,1.7798,1.7812,1.781,1.7815,1.7818,1.7811,1.7835,1.783,1.7819,1.7801,1.7831,1.7842,1.7846,1.7786,1.7786,1.7785,1.7785,0,0,1.7816,1.7815,1.7819,1.7821,1.7821,1.7827,1.7839,1.7845,1.785,1.7852,1.7862,1.7872,1.7862,1.7864,1.7856,1.7867,1.7894,1.7854,1.7854,1.7862,1.7922,1.7931,1.7936,1.7887,1.7888,1.7889,1.7923,0,1.7847,1.7867,1.786,1.7881,1.7889,1.7876,1.7886,1.7888,1.7885,1.7892,1.7888,1.7896,1.7882,1.7883,1.7892,1.7889,1.7906,1.7886,1.7897,1.7897,1.7897,1.7942,1.7951,1.7982,1.7927,1.7927,1.7928,0,1.7884,1.7889,1.7911,1.7911,1.7914,1.7924,1.7929,1.7936,1.7937,1.7935,1.7938,1.7929,1.7941,1.7925,1.7942,1.7928,1.7932,1.7932,1.7933,1.7933,1.7914,1.7944,1.7992,1.7997,1.7934,1.7934,1.7933,0,1.7915,1.7927,1.7942,1.7944,1.7944,1.7951,1.7951,1.7952,1.7956,1.7961,1.7964,1.7969,1.7973,1.7977,1.7971,1.7959,1.7989,1.7971,1.7987,1.7988,1.7994,1.7994,1.8044,1.7996,1.7996,1.7996,1.7996,0,1.795,1.7964,1.7956,1.7965,1.7981,1.7973,1.7989,1.7988,1.7989,1.7998,1.7987,1.7995,1.7986,1.7994,1.7989,1.8004,1.8006,1.8004,1.8002,1.8005,1.8005,1.8007,1.8005,1.7998,1.7997,1.7997,1.7997,0,1.7986,1.7981,1.7997,1.7996,1.7997,1.8009,1.8008,1.8017,1.8014,1.8026,1.8028,1.8023,1.8032,1.8026,1.8035,1.8031,1.8052,1.8047,1.8052,1.805,1.8067,1.8066,1.812,1.8128,1.8075,1.8076,1.8076,0,1.8009,1.802,1.802,1.8026,1.8027,1.8036,1.8041,1.8034,1.8039,1.8043,1.8051,1.806,1.8066,1.8081,1.8079,1.8086,1.8081,1.81,1.8082,1.8085,1.8082,1.8082,1.8083,1.8104,1.8104,1.8105,1.8105,0,1.8049,1.8047,1.8054,1.8061,1.8068,1.8073,1.8077,1.8082,1.8075,1.8081,1.8091,1.8096,1.8106,1.8115,1.8121,1.8122,1.8112,1.8111,1.8115,1.8118,1.812,1.812,1.8062,1.8109,1.8109,1.8109,1.8108,1.8108,1.808,1.8089,1.8092,1.8101,1.8104,1.8108,1.8117,1.8116,1.8124,1.8131,1.8127,1.8138,1.8141,1.8149,1.8151,1.816,1.8152,1.8158,1.8159,1.8161,1.8164,1.8119,1.8161,1.8161,1.8161,1.816,1.816,0,1.812,1.8122,1.813,1.8137,1.8144,1.8136,1.814,1.8147,1.8158,1.8161,1.8168,1.818,1.8189,1.8188,1.8196,1.8204,1.82,1.8206,1.8205,1.8206,1.817,1.8166,1.8209,1.8209,1.8209,1.8209,1.8209,1.8209,1.8142,1.8158,1.8157,1.8174,1.8176,1.8187,1.8191,1.8195,1.8198,1.8212,1.822,1.8219,1.8221,1.8229,1.8238,1.8237,1.8241,1.8249,1.8247,1.8213,1.8208,1.8203,1.82,1.8249,1.825,1.8282,1.8282,1.8282]},{"header":{"parameterUnit":"m.s-1","parameterCategory":1,"la1":30.2991,"la2":30.254,"lo1":-89.0895,"lo2":-89.0444,"dy":0.0017,"dx":0.0017,"nx":28,"ny":28,"refTime":"2025-12-29T09:00:00:Z","depth":0,"parameterNumber":3,"parameterNumberName":"V-component_of_WINDS"},"data":[0,0,0,0,0,0,0,0,0,0,0,0,0,0,0,0,0,0,0,0,0,0,0,0,0,0,0,0,0,0,0,0,0,0,0,0,0,0,0,0,0,0,0,0,0,0,0,0,0,0,0,0,0,0,0,0,0,0,-5.9337,-5.9338,0,-5.9443,-5.9444,-5.9445,-5.9432,-5.943,-5.9428,-5.9427,-5.953,-5.9534,-5.9538,0,0,0,0,0,0,0,0,0,0,0,0,0,-5.9118,-5.9122,-5.9336,-5.9338,-5.9339,-5.9443,-5.9444,-5.9446,-5.9432,-5.943,-5.9428,-5.9426,-5.9529,-5.9534,-5.9539,0,0,0,0,0,0,0,0,0,0,0,0,0,-5.9217,-5.9123,-5.9336,-5.9345,-5.9347,-5.9442,-5.9444,-5.9446,-5.9433,-5.943,-5.9427,-5.9425,-5.9527,-5.9533,-5.954,-5.9631,0,0,-5.9559,-5.9562,0,0,0,0,0,0,0,0,-5.9212,-5.9225,-5.9342,-5.9345,-5.9347,-5.9422,-5.9405,-5.9508,-5.9433,-5.94,-5.9427,-5.9424,-5.9496,-5.9505,-5.953,-5.9636,-5.964,-5.956,-5.9564,-5.9567,-5.9569,0,0,0,0,0,0,0,-5.9205,-5.922,-5.9378,-5.9344,-5.9347,-5.9342,-5.9354,-5.9424,-5.9461,-5.9403,-5.9402,-5.9415,-5.9496,-5.9524,-5.9532,-5.9642,-5.956,-5.9566,-5.957,-5.9572,-5.983,-5.9833,0,0,0,0,0,0,-5.9196,-5.9215,-5.9375,-5.9381,-5.9272,-5.9348,-5.9361,-5.94,-5.946,-5.9467,-5.9417,-5.9414,-5.9514,-5.9525,-5.9536,-5.9648,-5.9567,-5.9573,-5.9577,-5.9827,-5.983,-5.9834,0,0,0,0,0,0,-5.9192,-5.9211,-5.9371,-5.9298,-5.9318,-5.9355,-5.9399,-5.9404,-5.9431,-5.9471,-5.9477,-5.9439,-5.9512,-5.9527,-5.9608,-5.9651,-5.9576,-5.9582,-5.9823,-5.9828,-5.9832,-5.9872,0,0,0,0,0,0,-5.9185,-5.9209,-5.9245,-5.9299,-5.9322,-5.9443,-5.9402,-5.9407,-5.9443,-5.944,-5.9493,-5.9499,-5.9511,-5.9599,-5.9615,-5.9659,-5.9587,-5.982,-5.9825,-5.9831,-5.9867,-5.9878,-5.9886,0,0,0,0,0,-5.9178,-5.925,-5.9247,-5.9266,-5.9368,-5.9445,-5.9458,-5.9473,-5.9446,-5.9482,-5.9508,-5.9497,-5.9644,-5.9607,-5.9625,-5.9672,-5.9817,-5.9824,-5.983,-5.9863,-5.9875,-5.9886,0,0,0,0,0,0,-5.9198,-5.9258,-5.9254,-5.9347,-5.9392,-5.9443,-5.9489,-5.9485,-5.9536,-5.9531,-5.9545,-5.9557,-5.964,-5.9664,-5.9622,-5.9764,-5.9727,-5.9737,-5.9746,-5.9758,-5.9767,-5.9759,-5.9592,0,0,0,0,0,-5.9214,-5.9273,-5.9321,-5.9398,-5.9421,-5.9451,-5.9485,-5.9493,-5.9538,-5.9556,-5.9588,-5.9632,-5.9688,-5.9724,-5.9778,-5.9871,-5.9882,-5.9912,-5.9921,-5.9929,-5.9938,-5.999,-6.0004,-5.9855,-5.9855,-5.9855,0,0,-5.9245,-5.9286,-5.9321,-5.9403,-5.9439,-5.9499,-5.9467,-5.9531,-5.9575,-5.9565,-5.9646,-5.9671,-5.972,-5.9808,-5.9848,-5.9831,-5.9982,-5.9938,-5.9943,-5.9948,-5.9998,-6.0012,-6.0025,-5.986,-5.9859,-5.9858,0,0,-5.9335,-5.9371,-5.944,-5.9477,-5.9532,-5.9552,-5.9569,-5.9622,-5.9639,-5.972,-5.9714,-5.9766,-5.9862,-5.9898,-5.9929,-6.0034,-6.0026,-6.0051,-6.0101,-6.0151,-6.0163,-6.0173,-6.0211,-6.0225,-6.006,-6.006,-6.006,0,-5.9367,-5.9459,-5.9476,-5.9542,-5.9578,-5.9575,-5.9645,-5.9679,-5.9747,-5.9772,-5.9752,-5.9874,-5.9906,-6.0004,-6.003,-6.0055,-6.0074,-6.0045,-6.016,-6.0171,-6.0181,-6.0217,-6.0232,-6.0063,-6.0062,-6.0062,-6.0062,0,-5.9496,-5.956,-5.9609,-5.9679,-5.972,-5.9788,-5.9814,-5.9854,-5.9858,-5.988,-5.9963,-6.0003,-6.0065,-6.0089,-6.0092,-6.0187,-6.0175,-6.0157,-6.012,-6.0198,-6.0232,-6.0246,-6.0067,-6.0066,-6.0065,-6.0064,0,0,-5.9599,-5.968,-5.9697,-5.973,-5.9791,-5.984,-5.9907,-5.9971,-6.0005,-6.0053,-6.0109,-6.0192,-6.0177,-6.0212,-6.022,-6.0265,-6.0347,-6.0242,-6.0243,-6.026,-6.0454,-6.0467,-6.0483,-6.0342,-6.0345,-6.0347,-6.045,0,-5.9695,-5.9817,-5.9835,-5.9941,-6.0,-5.9999,-6.0058,-6.0102,-6.0124,-6.0177,-6.0201,-6.026,-6.0236,-6.0257,-6.0301,-6.0328,-6.0386,-6.032,-6.0394,-6.0396,-6.0382,-6.0501,-6.0514,-6.0609,-6.0464,-6.0466,-6.0467,0,-5.9822,-5.9877,-5.999,-6.0046,-6.0071,-6.0124,-6.0184,-6.0235,-6.0284,-6.0298,-6.0338,-6.0342,-6.0411,-6.0371,-6.0466,-6.0421,-6.0453,-6.047,-6.0474,-6.0481,-6.0436,-6.0511,-6.0639,-6.0654,-6.0489,-6.0487,-6.0486,0,-5.9887,-5.9988,-6.007,-6.0097,-6.0164,-6.0201,-6.023,-6.0277,-6.0315,-6.0367,-6.0391,-6.045,-6.0482,-6.0527,-6.0546,-6.0515,-6.064,-6.0602,-6.0652,-6.0652,-6.0678,-6.0676,-6.0814,-6.0699,-6.0698,-6.0698,-6.0698,0,-5.9991,-6.0061,-6.01,-6.015,-6.0228,-6.0248,-6.0324,-6.0351,-6.0394,-6.0448,-6.045,-6.0501,-6.0523,-6.0577,-6.0591,-6.0668,-6.0682,-6.0694,-6.0698,-6.0694,-6.0693,-6.0715,-6.0708,-6.0702,-6.0701,-6.07,-6.07,0,-6.0076,-6.0105,-6.0194,-6.0251,-6.0267,-6.0322,-6.0369,-6.0418,-6.0441,-6.051,-6.0527,-6.0563,-6.0627,-6.0651,-6.0727,-6.0737,-6.0827,-6.0824,-6.0811,-6.0811,-6.0861,-6.0856,-6.1017,-6.1039,-6.0909,-6.0911,-6.0912,0,-6.0141,-6.0195,-6.0258,-6.0296,-6.0328,-6.0388,-6.0428,-6.0449,-6.049,-6.0552,-6.0592,-6.0657,-6.0709,-6.0811,-6.0843,-6.0902,-6.0901,-6.0954,-6.091,-6.0905,-6.0902,-6.0899,-6.0904,-6.0961,-6.0963,-6.0964,-6.0965,0,-6.0253,-6.0265,-6.0323,-6.0387,-6.0434,-6.0485,-6.0533,-6.0564,-6.0593,-6.0639,-6.0706,-6.0747,-6.0827,-6.0891,-6.0952,-6.098,-6.0977,-6.0979,-6.0993,-6.099,-6.0981,-6.0987,-6.0833,-6.0974,-6.0973,-6.0973,-6.0972,-6.0972,-6.0329,-6.0378,-6.0431,-6.0496,-6.0536,-6.0582,-6.0631,-6.0662,-6.0719,-6.0787,-6.0796,-6.0868,-6.0917,-6.1,-6.1031,-6.1086,-6.1072,-6.1093,-6.1099,-6.1104,-6.1108,-6.0973,-6.1097,-6.1097,-6.1097,-6.1097,-6.1097,0,-6.0442,-6.0477,-6.0536,-6.0607,-6.0658,-6.0653,-6.0708,-6.075,-6.0814,-6.0861,-6.0914,-6.0991,-6.1054,-6.1092,-6.1154,-6.1191,-6.1192,-6.1207,-6.1204,-6.1211,-6.1117,-6.1098,-6.1206,-6.1206,-6.1206,-6.1206,-6.1206,-6.1206,-6.0506,-6.0589,-6.0608,-6.071,-6.0744,-6.0817,-6.0848,-6.0891,-6.0929,-6.1016,-6.1069,-6.1094,-6.1138,-6.1204,-6.126,-6.127,-6.1293,-6.1309,-6.1317,-6.1229,-6.1217,-6.1206,-6.1189,-6.1314,-6.1314,-6.1407,-6.1408,-6.1408]}]]